NKS579 MDPC-KFLL

Flight info

Callsign NKS579
Flight time 2h 26m
Altitude 34000
Route MALVN2W MALVN DCT RUMFO DCT ZQA OLAHS3
Aircraft MD82/M-SDFGIRWY/C

Departure

Time 2026-05-03 23:41
Airport Punta Cana International Airport (MDPC)

Arrival

Time 2026-05-04 02:07
Airport Fort Lauderdale Hollywood International Airport (KFLL)
Time Latitude Longitude Altitude Speed Heading
2026-05-03 22:56 18.56401 -68.36222 51 ft 0 kts 176°
2026-05-03 23:23 18.56409 -68.36223 49 ft 4 kts 176°
2026-05-03 23:23 18.56436 -68.36225 46 ft 4 kts 176°
2026-05-03 23:23 18.56463 -68.36227 48 ft 4 kts 176°
2026-05-03 23:24 18.56489 -68.36228 46 ft 2 kts 176°
2026-05-03 23:24 18.56491 -68.36228 46 ft 0 kts 176°
2026-05-03 23:29 18.56473 -68.36240 48 ft 6 kts 238°
2026-05-03 23:29 18.56469 -68.36324 51 ft 18 kts 264°
2026-05-03 23:29 18.56538 -68.36407 51 ft 12 kts 333°
2026-05-03 23:30 18.56549 -68.36486 51 ft 16 kts 257°
2026-05-03 23:30 18.56534 -68.36633 51 ft 22 kts 264°
2026-05-03 23:30 18.56519 -68.36808 48 ft 25 kts 264°
2026-05-03 23:30 18.56503 -68.36995 50 ft 26 kts 264°
2026-05-03 23:31 18.56486 -68.37185 51 ft 26 kts 264°
2026-05-03 23:31 18.56471 -68.37375 51 ft 26 kts 265°
2026-05-03 23:31 18.56455 -68.37557 51 ft 25 kts 265°
2026-05-03 23:31 18.56445 -68.37733 51 ft 22 kts 283°
2026-05-03 23:32 18.56561 -68.37789 50 ft 19 kts 355°
2026-05-03 23:32 18.56683 -68.37818 51 ft 18 kts 310°
2026-05-03 23:32 18.56735 -68.37930 51 ft 17 kts 294°
2026-05-03 23:32 18.56784 -68.38044 51 ft 17 kts 294°
2026-05-03 23:33 18.56831 -68.38156 50 ft 17 kts 294°
2026-05-03 23:33 18.56873 -68.38236 51 ft 0 kts 318°
2026-05-03 23:34 18.56873 -68.38237 51 ft 1 kts 318°
2026-05-03 23:34 18.56908 -68.38256 52 ft 10 kts 343°
2026-05-03 23:34 18.56933 -68.38264 52 ft 0 kts 344°
2026-05-03 23:39 18.56979 -68.38277 51 ft 9 kts 344°
2026-05-03 23:39 18.57030 -68.38281 50 ft 6 kts 41°
2026-05-03 23:39 18.57042 -68.38254 50 ft 0 kts 74°
2026-05-03 23:40 18.57042 -68.38253 50 ft 0 kts 74°
2026-05-03 23:40 18.57043 -68.38251 50 ft 3 kts 74°
2026-05-03 23:40 18.57092 -68.38073 53 ft 54 kts 74°
2026-05-03 23:40 18.57260 -68.37462 50 ft 117 kts 73°
2026-05-03 23:41 18.57518 -68.36526 52 ft 163 kts 76°
2026-05-03 23:41 18.57820 -68.35310 512 ft 172 kts 78°
2026-05-03 23:41 18.58100 -68.34100 1142 ft 180 kts 79°
2026-05-03 23:41 18.58339 -68.32793 1812 ft 179 kts 84°
2026-05-03 23:42 18.58532 -68.31449 2145 ft 198 kts 82°
2026-05-03 23:42 18.58806 -68.29995 2571 ft 188 kts 83°
2026-05-03 23:42 18.58731 -68.28726 3336 ft 171 kts 114°
2026-05-03 23:42 18.57925 -68.27760 3464 ft 186 kts 151°
2026-05-03 23:43 18.56680 -68.27168 3577 ft 204 kts 156°
2026-05-03 23:43 18.55329 -68.26510 3736 ft 225 kts 154°
2026-05-03 23:43 18.53838 -68.25841 3855 ft 246 kts 168°
2026-05-03 23:43 18.52099 -68.25987 4082 ft 262 kts 202°
2026-05-03 23:44 18.50580 -68.27091 4435 ft 270 kts 220°
2026-05-03 23:44 18.49183 -68.28435 4695 ft 274 kts 221°
2026-05-03 23:44 18.47840 -68.29863 4790 ft 275 kts 233°
2026-05-03 23:44 18.47125 -68.31722 4908 ft 280 kts 263°
2026-05-03 23:45 18.47031 -68.33773 5412 ft 280 kts 268°
2026-05-03 23:45 18.47013 -68.35832 5948 ft 282 kts 269°
2026-05-03 23:45 18.47004 -68.37902 6456 ft 284 kts 269°
2026-05-03 23:45 18.46999 -68.39958 6966 ft 286 kts 269°
2026-05-03 23:46 18.46983 -68.42055 7460 ft 287 kts 268°
2026-05-03 23:46 18.46945 -68.44164 7940 ft 289 kts 267°
2026-05-03 23:46 18.46885 -68.46292 8395 ft 291 kts 267°
2026-05-03 23:46 18.46810 -68.48432 8850 ft 293 kts 266°
2026-05-03 23:47 18.46726 -68.50584 9290 ft 295 kts 266°
2026-05-03 23:47 18.46635 -68.52752 9725 ft 297 kts 266°
2026-05-03 23:47 18.46676 -68.54939 10033 ft 305 kts 281°
2026-05-03 23:47 18.47405 -68.57061 10270 ft 312 kts 295°
2026-05-03 23:48 18.48357 -68.59109 10539 ft 318 kts 296°
2026-05-03 23:48 18.49372 -68.61207 10797 ft 324 kts 297°
2026-05-03 23:48 18.50421 -68.63343 11057 ft 331 kts 297°
2026-05-03 23:48 18.51489 -68.65516 11354 ft 336 kts 297°
2026-05-03 23:49 18.52556 -68.67719 11738 ft 338 kts 296°
2026-05-03 23:49 18.53610 -68.69939 12130 ft 339 kts 296°
2026-05-03 23:49 18.54654 -68.72174 12488 ft 341 kts 296°
2026-05-03 23:49 18.55697 -68.74429 12814 ft 343 kts 295°
2026-05-03 23:50 18.56729 -68.76670 13142 ft 345 kts 295°
2026-05-03 23:50 18.57435 -68.78209 13367 ft 346 kts 295°
2026-05-03 23:50 18.58826 -68.81239 13788 ft 348 kts 295°
2026-05-03 23:50 18.59885 -68.83545 14099 ft 350 kts 295°
2026-05-03 23:51 18.60946 -68.85853 14402 ft 351 kts 295°
2026-05-03 23:51 18.62016 -68.88174 14669 ft 353 kts 295°
2026-05-03 23:51 18.63091 -68.90504 14933 ft 354 kts 295°
2026-05-03 23:51 18.64173 -68.92846 15216 ft 356 kts 296°
2026-05-03 23:52 18.65259 -68.95196 15498 ft 357 kts 295°
2026-05-03 23:52 18.66347 -68.97555 15796 ft 358 kts 295°
2026-05-03 23:52 18.67421 -68.99890 16046 ft 360 kts 295°
2026-05-03 23:52 18.68517 -69.02274 16308 ft 361 kts 296°
2026-05-03 23:53 18.69615 -69.04659 16571 ft 362 kts 295°
2026-05-03 23:53 18.70719 -69.07055 16793 ft 364 kts 295°
2026-05-03 23:53 18.71826 -69.09463 17013 ft 366 kts 296°
2026-05-03 23:53 18.72941 -69.11880 17262 ft 367 kts 296°
2026-05-03 23:54 18.74059 -69.14299 17514 ft 368 kts 295°
2026-05-03 23:54 18.75181 -69.16728 17734 ft 369 kts 295°
2026-05-03 23:54 18.76307 -69.19170 17960 ft 371 kts 295°
2026-05-03 23:54 18.77422 -69.21586 18208 ft 371 kts 295°
2026-05-03 23:55 18.78553 -69.24038 18398 ft 373 kts 295°
2026-05-03 23:55 18.79690 -69.26505 18606 ft 374 kts 295°
2026-05-03 23:55 18.80830 -69.28977 18837 ft 375 kts 295°
2026-05-03 23:55 18.81973 -69.31454 19053 ft 376 kts 295°
2026-05-03 23:56 18.83119 -69.33938 19268 ft 377 kts 295°
2026-05-03 23:56 18.84269 -69.36436 19452 ft 379 kts 295°
2026-05-03 23:56 18.85418 -69.38941 19645 ft 380 kts 295°
2026-05-03 23:56 18.86557 -69.41425 19845 ft 381 kts 295°
2026-05-03 23:57 18.87712 -69.43945 20062 ft 382 kts 295°
2026-05-03 23:57 18.88870 -69.46469 20252 ft 383 kts 295°
2026-05-03 23:57 18.90031 -69.49001 20423 ft 384 kts 295°
2026-05-03 23:57 18.91199 -69.51546 20588 ft 386 kts 295°
2026-05-03 23:58 18.92369 -69.54094 20772 ft 386 kts 295°
2026-05-03 23:58 18.93541 -69.56648 20947 ft 387 kts 295°
2026-05-03 23:58 18.94718 -69.59212 21103 ft 388 kts 295°
2026-05-03 23:58 18.95897 -69.61782 21264 ft 389 kts 295°
2026-05-03 23:59 18.97063 -69.64323 21415 ft 390 kts 295°
2026-05-03 23:59 18.98248 -69.66905 21584 ft 391 kts 295°
2026-05-03 23:59 18.99435 -69.69494 21744 ft 392 kts 295°
2026-05-03 23:59 19.00624 -69.72086 21904 ft 392 kts 295°
2026-05-04 00:00 19.01815 -69.74684 22063 ft 393 kts 295°
2026-05-04 00:00 19.03002 -69.77282 22203 ft 393 kts 295°
2026-05-04 00:00 19.04188 -69.79884 22369 ft 393 kts 295°
2026-05-04 00:00 19.05375 -69.82489 22519 ft 393 kts 295°
2026-05-04 00:01 19.06546 -69.85060 22672 ft 394 kts 295°
2026-05-04 00:01 19.07736 -69.87671 22812 ft 394 kts 295°
2026-05-04 00:01 19.08926 -69.90281 22959 ft 395 kts 295°
2026-05-04 00:01 19.10059 -69.92766 23098 ft 395 kts 295°
2026-05-04 00:02 19.11253 -69.95382 23239 ft 395 kts 295°
2026-05-04 00:02 19.12446 -69.98000 23381 ft 396 kts 295°
2026-05-04 00:02 19.13644 -70.00625 23516 ft 396 kts 295°
2026-05-04 00:02 19.14839 -70.03248 23657 ft 396 kts 295°
2026-05-04 00:03 19.16036 -70.05874 23786 ft 396 kts 295°
2026-05-04 00:03 19.17232 -70.08500 23924 ft 397 kts 295°
2026-05-04 00:03 19.18415 -70.11094 24052 ft 397 kts 295°
2026-05-04 00:03 19.19613 -70.13726 24180 ft 397 kts 295°
2026-05-04 00:04 19.20809 -70.16357 24296 ft 397 kts 295°
2026-05-04 00:04 19.22001 -70.18991 24426 ft 397 kts 295°
2026-05-04 00:04 19.23193 -70.21626 24546 ft 397 kts 295°
2026-05-04 00:04 19.24387 -70.24264 24663 ft 397 kts 295°
2026-05-04 00:05 19.25580 -70.26900 24788 ft 397 kts 295°
2026-05-04 00:05 19.26775 -70.29539 24890 ft 398 kts 295°
2026-05-04 00:05 19.27971 -70.32178 24997 ft 398 kts 295°
2026-05-04 00:05 19.29169 -70.34823 25112 ft 398 kts 295°
2026-05-04 00:06 19.30349 -70.37429 25221 ft 398 kts 295°
2026-05-04 00:06 19.31548 -70.40076 25326 ft 399 kts 295°
2026-05-04 00:06 19.32745 -70.42719 25435 ft 399 kts 295°
2026-05-04 00:06 19.33944 -70.45367 25536 ft 399 kts 295°
2026-05-04 00:07 19.35143 -70.48018 25633 ft 399 kts 295°
2026-05-04 00:07 19.36342 -70.50667 25739 ft 399 kts 295°
2026-05-04 00:07 19.37543 -70.53322 25839 ft 399 kts 295°
2026-05-04 00:07 19.38744 -70.55971 25932 ft 400 kts 295°
2026-05-04 00:08 19.39936 -70.58587 26026 ft 400 kts 296°
2026-05-04 00:08 19.41492 -70.61013 26058 ft 401 kts 315°
2026-05-04 00:08 19.43620 -70.62913 26157 ft 400 kts 324°
2026-05-04 00:08 19.45876 -70.64629 26290 ft 398 kts 325°
2026-05-04 00:09 19.48147 -70.66308 26406 ft 398 kts 325°
2026-05-04 00:09 19.50416 -70.67980 26517 ft 397 kts 325°
2026-05-04 00:09 19.52679 -70.69659 26618 ft 397 kts 325°
2026-05-04 00:09 19.54927 -70.71354 26719 ft 397 kts 324°
2026-05-04 00:10 19.57161 -70.73068 26820 ft 396 kts 324°
2026-05-04 00:10 19.59357 -70.74771 26917 ft 396 kts 324°
2026-05-04 00:10 19.61576 -70.76505 27004 ft 396 kts 323°
2026-05-04 00:10 19.63792 -70.78241 27083 ft 396 kts 324°
2026-05-04 00:11 19.66010 -70.79980 27176 ft 396 kts 323°
2026-05-04 00:11 19.68226 -70.81714 27263 ft 396 kts 324°
2026-05-04 00:11 19.70448 -70.83451 27345 ft 396 kts 324°
2026-05-04 00:11 19.72667 -70.85184 27424 ft 396 kts 324°
2026-05-04 00:12 19.74858 -70.86892 27502 ft 396 kts 324°
2026-05-04 00:12 19.77078 -70.88626 27579 ft 396 kts 324°
2026-05-04 00:12 19.79298 -70.90362 27659 ft 396 kts 324°
2026-05-04 00:12 19.81519 -70.92099 27718 ft 397 kts 324°
2026-05-04 00:13 19.83740 -70.93836 27790 ft 397 kts 324°
2026-05-04 00:13 19.85964 -70.95574 27862 ft 397 kts 324°
2026-05-04 00:13 19.88187 -70.97312 27941 ft 397 kts 324°
2026-05-04 00:13 19.90411 -70.99051 27999 ft 397 kts 324°
2026-05-04 00:14 19.94719 -71.02418 28125 ft 397 kts 324°
2026-05-04 00:14 19.99170 -71.05899 28247 ft 397 kts 324°
2026-05-04 00:15 20.03624 -71.09386 28367 ft 397 kts 324°
2026-05-04 00:15 20.08076 -71.12872 28482 ft 398 kts 324°
2026-05-04 00:16 20.12498 -71.16342 28591 ft 398 kts 324°
2026-05-04 00:16 20.16952 -71.19842 28700 ft 398 kts 324°
2026-05-04 00:17 20.21407 -71.23341 28800 ft 398 kts 323°
2026-05-04 00:17 20.25868 -71.26844 28897 ft 398 kts 324°
2026-05-04 00:18 20.30330 -71.30350 28992 ft 399 kts 324°
2026-05-04 00:18 20.34762 -71.33835 29084 ft 399 kts 324°
2026-05-04 00:19 20.39227 -71.37347 29174 ft 399 kts 323°
2026-05-04 00:19 20.43351 -71.41282 29231 ft 400 kts 309°
2026-05-04 00:20 20.46755 -71.45962 29343 ft 399 kts 307°
2026-05-04 00:20 20.50099 -71.50640 29416 ft 399 kts 307°
2026-05-04 00:21 20.53513 -71.55316 29493 ft 400 kts 308°
2026-05-04 00:21 20.56968 -71.59965 29554 ft 400 kts 308°
2026-05-04 00:22 20.60433 -71.64607 29641 ft 400 kts 308°
2026-05-04 00:22 20.63873 -71.69228 29710 ft 400 kts 308°
2026-05-04 00:23 20.67333 -71.73889 29778 ft 400 kts 308°
2026-05-04 00:23 20.70787 -71.78555 29845 ft 400 kts 308°
2026-05-04 00:24 20.74237 -71.83227 29908 ft 401 kts 308°
2026-05-04 00:24 20.77667 -71.87870 29970 ft 401 kts 308°
2026-05-04 00:25 20.81122 -71.92546 30037 ft 401 kts 308°
2026-05-04 00:25 20.84581 -71.97229 30093 ft 401 kts 308°
2026-05-04 00:26 20.88042 -72.01918 30152 ft 402 kts 308°
2026-05-04 00:26 20.91480 -72.06579 30210 ft 402 kts 308°
2026-05-04 00:27 20.94941 -72.11276 30272 ft 402 kts 308°
2026-05-04 00:27 20.98397 -72.15982 30325 ft 402 kts 308°
2026-05-04 00:28 21.01852 -72.20688 30388 ft 402 kts 308°
2026-05-04 00:28 21.05288 -72.25366 30431 ft 402 kts 308°
2026-05-04 00:29 21.08746 -72.30075 30484 ft 402 kts 308°
2026-05-04 00:29 21.12209 -72.34791 30533 ft 403 kts 308°
2026-05-04 00:30 21.15668 -72.39506 30581 ft 403 kts 308°
2026-05-04 00:30 21.19106 -72.44196 30622 ft 403 kts 308°
2026-05-04 00:31 21.22562 -72.48921 30674 ft 403 kts 308°
2026-05-04 00:31 21.26015 -72.53653 30717 ft 403 kts 308°
2026-05-04 00:32 21.29467 -72.58381 30759 ft 403 kts 308°
2026-05-04 00:32 21.32900 -72.63081 30802 ft 403 kts 308°
2026-05-04 00:33 21.38084 -72.70184 30859 ft 403 kts 308°
2026-05-04 00:34 21.41541 -72.74922 30899 ft 403 kts 308°
2026-05-04 00:34 21.44975 -72.79633 30934 ft 403 kts 308°
2026-05-04 00:35 21.48424 -72.84377 30970 ft 403 kts 308°
2026-05-04 00:35 21.51872 -72.89129 31005 ft 403 kts 308°
2026-05-04 00:36 21.55322 -72.93882 31039 ft 403 kts 308°
2026-05-04 00:36 21.58747 -72.98600 31071 ft 403 kts 308°
2026-05-04 00:37 21.62198 -73.03354 31102 ft 404 kts 308°
2026-05-04 00:37 21.65652 -73.08115 31135 ft 404 kts 308°
2026-05-04 00:38 21.69107 -73.12881 31174 ft 404 kts 308°
2026-05-04 00:38 21.72564 -73.17656 31212 ft 405 kts 308°
2026-05-04 00:39 21.75993 -73.22409 31250 ft 405 kts 308°
2026-05-04 00:39 21.79446 -73.27195 31283 ft 405 kts 308°
2026-05-04 00:40 21.82902 -73.31984 31325 ft 405 kts 308°
2026-05-04 00:40 21.86359 -73.36775 31362 ft 405 kts 308°
2026-05-04 00:41 21.89794 -73.41537 31398 ft 405 kts 308°
2026-05-04 00:41 21.93251 -73.46332 31440 ft 405 kts 308°
2026-05-04 00:42 21.96710 -73.51133 31466 ft 405 kts 308°
2026-05-04 00:42 22.00159 -73.55938 31497 ft 406 kts 307°
2026-05-04 00:43 22.03585 -73.60718 31532 ft 406 kts 308°
2026-05-04 00:43 22.07034 -73.65527 31556 ft 406 kts 307°
2026-05-04 00:44 22.10487 -73.70340 31596 ft 406 kts 308°
2026-05-04 00:44 22.13940 -73.75155 31619 ft 406 kts 307°
2026-05-04 00:45 22.17367 -73.79938 31642 ft 406 kts 307°
2026-05-04 00:45 22.20819 -73.84758 31663 ft 406 kts 308°
2026-05-04 00:46 22.24266 -73.89581 31704 ft 406 kts 307°
2026-05-04 00:46 22.27708 -73.94413 31731 ft 406 kts 307°
2026-05-04 00:47 22.31125 -73.99209 31757 ft 406 kts 307°
2026-05-04 00:47 22.34569 -74.04040 31783 ft 406 kts 307°
2026-05-04 00:48 22.38013 -74.08872 31808 ft 406 kts 307°
2026-05-04 00:48 22.41457 -74.13706 31831 ft 406 kts 307°
2026-05-04 00:49 22.44876 -74.18511 31864 ft 406 kts 307°
2026-05-04 00:49 22.48318 -74.23350 31879 ft 406 kts 307°
2026-05-04 00:50 22.51752 -74.28199 31902 ft 406 kts 307°
2026-05-04 00:50 22.55183 -74.33046 31919 ft 406 kts 307°
2026-05-04 00:51 22.58594 -74.37864 31947 ft 406 kts 307°
2026-05-04 00:51 22.62031 -74.42717 31967 ft 406 kts 307°
2026-05-04 00:52 22.65465 -74.47567 31983 ft 406 kts 307°
2026-05-04 00:52 22.68899 -74.52423 32009 ft 406 kts 307°
2026-05-04 00:53 22.72310 -74.57247 32029 ft 406 kts 307°
2026-05-04 00:53 22.75737 -74.62109 32048 ft 406 kts 307°
2026-05-04 00:54 22.79160 -74.66979 32068 ft 406 kts 307°
2026-05-04 00:54 22.82582 -74.71845 32086 ft 406 kts 307°
2026-05-04 00:55 22.85984 -74.76681 32109 ft 406 kts 307°
2026-05-04 00:55 22.89410 -74.81552 32125 ft 406 kts 307°
2026-05-04 00:56 22.92835 -74.86424 32139 ft 406 kts 307°
2026-05-04 00:56 22.96258 -74.91298 32158 ft 406 kts 307°
2026-05-04 00:57 22.99567 -74.96020 32175 ft 406 kts 307°
2026-05-04 00:57 23.02983 -75.00904 32192 ft 406 kts 307°
2026-05-04 00:58 23.06414 -75.05778 32210 ft 406 kts 307°
2026-05-04 00:58 23.09282 -75.09814 32224 ft 406 kts 309°
2026-05-04 00:59 23.13002 -75.14430 32236 ft 406 kts 313°
2026-05-04 00:59 23.17478 -75.19649 32252 ft 406 kts 313°
2026-05-04 01:00 23.21321 -75.24152 32268 ft 406 kts 313°
2026-05-04 01:00 23.24493 -75.27914 32281 ft 406 kts 312°
2026-05-04 01:01 23.28298 -75.32454 32296 ft 406 kts 312°
2026-05-04 01:01 23.32717 -75.37733 32311 ft 406 kts 312°
2026-05-04 01:02 23.35907 -75.41541 32325 ft 406 kts 312°
2026-05-04 01:02 23.39684 -75.46056 32332 ft 406 kts 312°
2026-05-04 01:03 23.43483 -75.50610 32352 ft 406 kts 312°
2026-05-04 01:03 23.47282 -75.55163 32368 ft 406 kts 312°
2026-05-04 01:04 23.51083 -75.59717 32382 ft 406 kts 312°
2026-05-04 01:04 23.54857 -75.64241 32395 ft 406 kts 312°
2026-05-04 01:05 23.58658 -75.68800 32409 ft 406 kts 312°
2026-05-04 01:05 23.62455 -75.73358 32424 ft 406 kts 312°
2026-05-04 01:06 23.66253 -75.77921 32420 ft 407 kts 312°
2026-05-04 01:06 23.70027 -75.82473 32379 ft 408 kts 312°
2026-05-04 01:07 23.73841 -75.87075 32354 ft 409 kts 312°
2026-05-04 01:07 23.77662 -75.91685 32335 ft 410 kts 312°
2026-05-04 01:08 23.81490 -75.96302 32329 ft 410 kts 312°
2026-05-04 01:08 23.85322 -76.00926 32323 ft 411 kts 312°
2026-05-04 01:09 23.89131 -76.05527 32322 ft 411 kts 312°
2026-05-04 01:09 23.92965 -76.10161 32323 ft 411 kts 312°
2026-05-04 01:10 23.96795 -76.14805 32327 ft 411 kts 312°
2026-05-04 01:10 24.00625 -76.19458 32330 ft 411 kts 312°
2026-05-04 01:11 24.04429 -76.24078 32330 ft 411 kts 312°
2026-05-04 01:11 24.08262 -76.28731 32337 ft 412 kts 312°
2026-05-04 01:12 24.12093 -76.33384 32341 ft 412 kts 312°
2026-05-04 01:12 24.15925 -76.38043 32350 ft 412 kts 312°
2026-05-04 01:13 24.19731 -76.42673 32366 ft 412 kts 312°
2026-05-04 01:13 24.23560 -76.47339 32373 ft 412 kts 312°
2026-05-04 01:14 24.27380 -76.52011 32381 ft 412 kts 312°
2026-05-04 01:14 24.31202 -76.56685 32390 ft 412 kts 312°
2026-05-04 01:15 24.35000 -76.61328 32400 ft 412 kts 312°
2026-05-04 01:15 24.38825 -76.66005 32410 ft 412 kts 312°
2026-05-04 01:16 24.42645 -76.70678 32420 ft 412 kts 312°
2026-05-04 01:16 24.46465 -76.75357 32430 ft 411 kts 311°
2026-05-04 01:17 24.50259 -76.80006 32439 ft 411 kts 312°
2026-05-04 01:17 24.54069 -76.84698 32447 ft 412 kts 311°
2026-05-04 01:18 24.57880 -76.89391 32456 ft 412 kts 312°
2026-05-04 01:18 24.61690 -76.94082 32465 ft 412 kts 311°
2026-05-04 01:19 24.65505 -76.98777 32482 ft 412 kts 311°
2026-05-04 01:19 24.69290 -77.03440 32496 ft 411 kts 311°
2026-05-04 01:20 24.73101 -77.08138 32503 ft 411 kts 311°
2026-05-04 01:20 24.76910 -77.12838 32505 ft 411 kts 311°
2026-05-04 01:21 24.80684 -77.17576 32515 ft 411 kts 311°
2026-05-04 01:21 24.84432 -77.22279 32523 ft 411 kts 311°
2026-05-04 01:22 24.88238 -77.26988 32534 ft 411 kts 311°
2026-05-04 01:22 24.92055 -77.31683 32545 ft 411 kts 312°
2026-05-04 01:23 24.95780 -77.36266 32554 ft 411 kts 312°
2026-05-04 01:23 24.99593 -77.40965 32565 ft 411 kts 311°
2026-05-04 01:24 25.03092 -77.45881 32521 ft 412 kts 296°
2026-05-04 01:24 25.05297 -77.51692 32570 ft 410 kts 291°
2026-05-04 01:25 25.07364 -77.57559 32580 ft 410 kts 291°
2026-05-04 01:25 25.09482 -77.63407 32588 ft 411 kts 291°
2026-05-04 01:26 25.11647 -77.69196 32596 ft 411 kts 292°
2026-05-04 01:26 25.13843 -77.75013 32603 ft 411 kts 292°
2026-05-04 01:27 25.16036 -77.80837 32615 ft 411 kts 292°
2026-05-04 01:27 25.18220 -77.86663 32633 ft 411 kts 292°
2026-05-04 01:28 25.20370 -77.92464 32644 ft 411 kts 291°
2026-05-04 01:28 25.22522 -77.98310 32652 ft 411 kts 292°
2026-05-04 01:29 25.24687 -78.04152 32660 ft 411 kts 292°
2026-05-04 01:29 25.26862 -78.09989 32671 ft 411 kts 292°
2026-05-04 01:30 25.29023 -78.15790 32683 ft 411 kts 292°
2026-05-04 01:30 25.31226 -78.21614 32693 ft 411 kts 293°
2026-05-04 01:31 25.33546 -78.27387 32695 ft 411 kts 294°
2026-05-04 01:31 25.35888 -78.33153 32716 ft 411 kts 294°
2026-05-04 01:32 25.38199 -78.38887 32721 ft 411 kts 294°
2026-05-04 01:32 25.40511 -78.44665 32742 ft 411 kts 293°
2026-05-04 01:33 25.42785 -78.50467 32753 ft 411 kts 292°
2026-05-04 01:33 25.44986 -78.56254 32765 ft 411 kts 292°
2026-05-04 01:34 25.47203 -78.62083 32766 ft 410 kts 292°
2026-05-04 01:34 25.48307 -78.64969 32280 ft 405 kts 292°
2026-05-04 01:34 25.49405 -78.67834 31380 ft 405 kts 292°
2026-05-04 01:34 25.50514 -78.70724 30250 ft 411 kts 292°
2026-05-04 01:35 25.51642 -78.73664 29033 ft 418 kts 292°
2026-05-04 01:35 25.52787 -78.76645 27850 ft 422 kts 292°
2026-05-04 01:35 25.54140 -78.79448 27097 ft 415 kts 308°
2026-05-04 01:35 25.56181 -78.81622 26513 ft 403 kts 328°
2026-05-04 01:36 25.58683 -78.82878 25952 ft 391 kts 347°
2026-05-04 01:36 25.61336 -78.83125 25393 ft 380 kts
2026-05-04 01:36 25.63871 -78.82360 24842 ft 383 kts 28°
2026-05-04 01:36 25.66063 -78.80637 24302 ft 392 kts 47°
2026-05-04 01:37 25.67619 -78.78175 23764 ft 390 kts 67°
2026-05-04 01:37 25.68324 -78.75319 23207 ft 382 kts 86°
2026-05-04 01:37 25.68154 -78.72454 22241 ft 374 kts 106°
2026-05-04 01:37 25.67102 -78.69913 21506 ft 357 kts 127°
2026-05-04 01:38 25.65314 -78.68057 21126 ft 352 kts 149°
2026-05-04 01:38 25.63045 -78.67107 20971 ft 349 kts 172°
2026-05-04 01:38 25.60652 -78.67182 20875 ft 345 kts 193°
2026-05-04 01:38 25.58398 -78.68028 20804 ft 340 kts 200°
2026-05-04 01:39 25.56290 -78.69165 20732 ft 337 kts 215°
2026-05-04 01:39 25.54690 -78.71023 20670 ft 334 kts 239°
2026-05-04 01:39 25.53882 -78.73411 20614 ft 332 kts 260°
2026-05-04 01:39 25.53739 -78.75919 20554 ft 331 kts 273°
2026-05-04 01:40 25.54029 -78.78436 20482 ft 329 kts 281°
2026-05-04 01:40 25.54595 -78.80900 20294 ft 332 kts 287°
2026-05-04 01:40 25.55336 -78.83348 19953 ft 339 kts 290°
2026-05-04 01:40 25.56192 -78.85810 19553 ft 346 kts 291°
2026-05-04 01:41 25.57124 -78.88303 19112 ft 354 kts 292°
2026-05-04 01:41 25.58103 -78.90835 18641 ft 361 kts 293°
2026-05-04 01:41 25.59106 -78.93396 18137 ft 363 kts 293°
2026-05-04 01:41 25.60096 -78.95922 17594 ft 362 kts 293°
2026-05-04 01:42 25.61088 -78.98472 17037 ft 360 kts 293°
2026-05-04 01:42 25.62068 -79.01009 16476 ft 356 kts 292°
2026-05-04 01:42 25.63031 -79.03521 15910 ft 352 kts 292°
2026-05-04 01:42 25.63975 -79.06012 15373 ft 349 kts 292°
2026-05-04 01:43 25.64903 -79.08484 14838 ft 346 kts 292°
2026-05-04 01:43 25.65820 -79.10939 14308 ft 344 kts 292°
2026-05-04 01:43 25.66730 -79.13378 13792 ft 341 kts 292°
2026-05-04 01:43 25.67623 -79.15769 13289 ft 339 kts 292°
2026-05-04 01:44 25.68523 -79.18176 12760 ft 338 kts 292°
2026-05-04 01:44 25.69419 -79.20569 12265 ft 335 kts 292°
2026-05-04 01:44 25.70308 -79.22944 11747 ft 332 kts 292°
2026-05-04 01:44 25.71188 -79.25291 11238 ft 328 kts 292°
2026-05-04 01:45 25.72061 -79.27617 10733 ft 325 kts 292°
2026-05-04 01:45 25.72889 -79.29827 10437 ft 293 kts 292°
2026-05-04 01:45 25.74339 -79.33760 10093 ft 279 kts 291°
2026-05-04 01:46 25.75067 -79.35766 9897 ft 286 kts 291°
2026-05-04 01:46 25.75817 -79.37829 9343 ft 289 kts 291°
2026-05-04 01:46 25.76563 -79.39882 8693 ft 285 kts 291°
2026-05-04 01:46 25.77299 -79.41904 8029 ft 281 kts 291°
2026-05-04 01:47 25.78026 -79.43899 7453 ft 276 kts 291°
2026-05-04 01:47 25.78738 -79.45852 7175 ft 273 kts 291°
2026-05-04 01:47 25.79453 -79.47811 7053 ft 275 kts 291°
2026-05-04 01:47 25.80172 -79.49781 6985 ft 276 kts 291°
2026-05-04 01:48 25.80897 -79.51765 6813 ft 277 kts 291°
2026-05-04 01:48 25.81609 -79.53714 6668 ft 275 kts 291°
2026-05-04 01:48 25.82327 -79.55678 6525 ft 274 kts 291°
2026-05-04 01:48 25.83043 -79.57639 6399 ft 274 kts 291°
2026-05-04 01:49 25.83759 -79.59596 6293 ft 274 kts 291°
2026-05-04 01:49 25.84476 -79.61560 6160 ft 274 kts 291°
2026-05-04 01:49 25.85198 -79.63516 6050 ft 273 kts 292°
2026-05-04 01:49 25.85975 -79.65431 5991 ft 272 kts 295°
2026-05-04 01:50 25.86789 -79.67329 5968 ft 272 kts 295°
2026-05-04 01:50 25.87617 -79.69224 5948 ft 273 kts 295°
2026-05-04 01:50 25.88438 -79.71090 5946 ft 273 kts 295°
2026-05-04 01:50 25.89269 -79.72983 5948 ft 273 kts 295°
2026-05-04 01:51 25.90097 -79.74876 5946 ft 272 kts 295°
2026-05-04 01:51 25.90917 -79.76775 5944 ft 273 kts 295°
2026-05-04 01:51 25.91732 -79.78677 5946 ft 273 kts 295°
2026-05-04 01:51 25.92544 -79.80579 5947 ft 273 kts 295°
2026-05-04 01:52 25.93358 -79.82488 5951 ft 273 kts 295°
2026-05-04 01:52 25.94166 -79.84396 5960 ft 273 kts 294°
2026-05-04 01:52 25.94962 -79.86280 5953 ft 273 kts 295°
2026-05-04 01:52 25.95775 -79.88189 5948 ft 273 kts 295°
2026-05-04 01:53 25.96589 -79.90096 5950 ft 273 kts 295°
2026-05-04 01:53 25.97403 -79.92006 5953 ft 273 kts 295°
2026-05-04 01:53 25.98176 -79.93815 5954 ft 273 kts 295°
2026-05-04 01:53 25.99068 -79.95667 5938 ft 266 kts 306°
2026-05-04 01:54 26.00197 -79.97190 5919 ft 246 kts 312°
2026-05-04 01:54 26.01297 -79.98533 5885 ft 227 kts 313°
2026-05-04 01:54 26.02374 -79.99824 5881 ft 228 kts 313°
2026-05-04 01:54 26.03444 -80.01100 5888 ft 229 kts 313°
2026-05-04 01:55 26.04532 -80.02395 5889 ft 229 kts 313°
2026-05-04 01:55 26.05617 -80.03693 5895 ft 230 kts 313°
2026-05-04 01:55 26.06701 -80.05000 5910 ft 230 kts 313°
2026-05-04 01:55 26.07780 -80.06311 5913 ft 230 kts 312°
2026-05-04 01:56 26.08855 -80.07628 5920 ft 230 kts 312°
2026-05-04 01:56 26.09929 -80.08950 5928 ft 230 kts 312°
2026-05-04 01:56 26.10998 -80.10272 5934 ft 230 kts 312°
2026-05-04 01:56 26.12053 -80.11578 5939 ft 230 kts 312°
2026-05-04 01:57 26.13120 -80.12904 5941 ft 230 kts 312°
2026-05-04 01:57 26.14188 -80.14232 5943 ft 230 kts 311°
2026-05-04 01:57 26.15053 -80.15710 5944 ft 229 kts 284°
2026-05-04 01:57 26.15216 -80.17460 5984 ft 228 kts 268°
2026-05-04 01:58 26.15205 -80.19229 5999 ft 229 kts 268°
2026-05-04 01:58 26.15196 -80.20998 6007 ft 229 kts 268°
2026-05-04 01:58 26.15173 -80.22768 5942 ft 231 kts 267°
2026-05-04 01:58 26.15138 -80.24531 5677 ft 229 kts 267°
2026-05-04 01:59 26.15104 -80.26296 5434 ft 227 kts 267°
2026-05-04 01:59 26.15078 -80.28051 5187 ft 226 kts 268°
2026-05-04 01:59 26.15061 -80.29794 4896 ft 226 kts 268°
2026-05-04 01:59 26.15051 -80.31535 4605 ft 224 kts 268°
2026-05-04 02:00 26.15035 -80.33263 4303 ft 223 kts 268°
2026-05-04 02:00 26.15012 -80.34982 4001 ft 221 kts 268°
2026-05-04 02:00 26.14981 -80.36679 3794 ft 219 kts 267°
2026-05-04 02:00 26.14939 -80.38370 3592 ft 218 kts 262°
2026-05-04 02:01 26.14373 -80.39818 3438 ft 204 kts 218°
2026-05-04 02:01 26.13087 -80.40279 3276 ft 197 kts 171°
2026-05-04 02:01 26.11745 -80.39994 3124 ft 196 kts 166°
2026-05-04 02:01 26.10489 -80.39455 2929 ft 194 kts 148°
2026-05-04 02:02 26.09355 -80.38654 2740 ft 193 kts 146°
2026-05-04 02:02 26.08248 -80.37819 2534 ft 192 kts 141°
2026-05-04 02:02 26.07599 -80.36589 2359 ft 190 kts 91°
2026-05-04 02:02 26.07754 -80.35248 2840 ft 164 kts 86°
2026-05-04 02:03 26.07798 -80.33950 2936 ft 169 kts 91°
2026-05-04 02:03 26.07815 -80.32710 2832 ft 153 kts 89°
2026-05-04 02:03 26.07836 -80.31600 2640 ft 135 kts 94°
2026-05-04 02:03 26.07788 -80.30575 2466 ft 132 kts 96°
2026-05-04 02:04 26.07796 -80.29540 2275 ft 129 kts 91°
2026-05-04 02:04 26.07780 -80.28532 2220 ft 135 kts 94°
2026-05-04 02:04 26.07762 -80.27489 2008 ft 135 kts 92°
2026-05-04 02:04 26.07755 -80.26450 1766 ft 133 kts 93°
2026-05-04 02:05 26.07746 -80.25427 1558 ft 131 kts 93°
2026-05-04 02:05 26.07738 -80.24434 1404 ft 130 kts 93°
2026-05-04 02:05 26.07731 -80.23427 1266 ft 130 kts 92°
2026-05-04 02:05 26.07724 -80.22415 1100 ft 131 kts 92°
2026-05-04 02:06 26.07716 -80.21401 918 ft 132 kts 93°
2026-05-04 02:06 26.07707 -80.20381 698 ft 131 kts 92°
2026-05-04 02:06 26.07713 -80.19377 545 ft 130 kts 93°
2026-05-04 02:06 26.07699 -80.18366 377 ft 130 kts 92°
2026-05-04 02:07 26.07700 -80.17367 214 ft 129 kts 92°
2026-05-04 02:07 26.07694 -80.16353 48 ft 132 kts 92°
2026-05-04 02:07 26.07688 -80.15431 16 ft 91 kts 90°
2026-05-04 02:07 26.07685 -80.14944 18 ft 36 kts 90°
2026-05-04 02:08 26.07665 -80.14685 20 ft 31 kts 103°
2026-05-04 02:08 26.07603 -80.14535 19 ft 10 kts 128°
2026-05-04 02:08 26.07563 -80.14525 19 ft 4 kts 238°
2026-05-04 02:08 26.07560 -80.14619 18 ft 17 kts 271°
2026-05-04 02:09 26.07561 -80.14748 17 ft 20 kts 270°
2026-05-04 02:09 26.07562 -80.14860 17 ft 22 kts 271°
2026-05-04 02:09 26.07562 -80.15075 16 ft 33 kts 269°
2026-05-04 02:09 26.07490 -80.15173 16 ft 13 kts 172°
2026-05-04 02:10 26.07410 -80.15145 18 ft 12 kts 161°
2026-05-04 02:10 26.07328 -80.15125 16 ft 12 kts 170°
2026-05-04 02:10 26.07251 -80.15125 16 ft 12 kts 182°
2026-05-04 02:10 26.07196 -80.15128 16 ft 12 kts 181°